Location: Ford County Road and Bridge Department
(37.7686°N, 99.9762°W)
Time: 14:56:13
(UTC+00:00)

Cosmos 1825 Rocket - Pass Details

Date: 18 January 2020
Orbit: 604 x 630 km, 82.5° (Epoch: 27 February)

Event Time Altitude Azimuth Distance (km) Brightness Sun altitude
Rises 00:42:25 0° 158° (SSE) 2,879 6.9 -11.1°
Reaches altitude 10° 00:44:54 10° 146° (SE) 1,974 6.0 -11.5°
Maximum altitude 00:48:32 26° 89° (E) 1,212 4.5 -12.2°
Enters shadow 00:51:25 14° 39° (NE) 1,734 5.4 -12.8°
